Location: Unspecified
(0.0000°N, 0.0000°E)
Time: 03:51:19
(UTC+00:00)

GEESAT 6-01 - Pass Details

Date: 23 November 2025
Orbit: 597 x 618 km, 50.0° (Epoch: 07 December)

Event Time Altitude Azimuth Distance (km) Brightness Sun altitude
Rises 19:10:38 0° 337° (NNW) 2,820 ? -19.6°
Reaches altitude 10° 19:13:04 10° 346° (NNW) 1,920 ? -20.2°
Enters shadow 19:14:31 19° 358° (N) 1,432 ? -20.5°
